Orbital Elements at Epoch 2459200.5 (2020-Dec-17.0) TDB
Reference: JPL 22 (heliocentric ecliptic J2000)
Element | Value | Uncertainty (1-sigma) | Units |
e | .09571074362711807 | 4.2932e-08 | |
a | 2.185517565146939 | 6.4796e-09 | au |
q | 1.976340053776597 | 9.37e-08 | au |
i | 4.10253616256237 | 3.2721e-06 | deg |
node | 152.3930238216125 | 6.1749e-05 | deg |
peri | 238.7149292476227 | 6.4051e-05 | deg |
M | 250.7864054157653 | 1.7975e-05 | deg |
tp | 2459558.517354796272 (2021-Dec-10.01735480) | 5.9351e-05 | TDB |
period | 1180.130076455364 3.23 | 5.2482e-06 1.437e-08 | d yr |
n | .3050511186709987 | 1.3566e-09 | deg/d |
Q | 2.394695076517281 | 7.0997e-09 | au |
|
| | Orbit Determination Parameters
Additional Information
|